Weather in Teslugov

Ukraine / Rovno District     50°18′53″N   25°17′55″E
temp.,
°C
wind,
m/s
gust,
m/s
humid.,
%
clouds,
%
prec.,
mm/h
press.,
hPa
HPBL,
m
7 may, fri
fri700:00+6ssw498521 0.2 1012171
03:00+5ssw3788100 0.2 1012140
06:00+5s41085100 0.0 1010181
09:00+8se3882100 1.2 1009355
12:00+11s61178100 0.4 1007775
15:00+12w477963 0.6 1006604
18:00+13wnw4570100 0.2 1005752
21:00+10w41185100 0.8 1006367
8 may, sat
sat800:00+8wnw61287100 0.6 1008735
03:00+6w71290100 0.8 1011914
06:00+4w91483100 0.1 10131136
09:00+5w8148176 0.2 10161340
12:00+7wnw8117585 0.8 10181364
15:00+7wnw71073100 1.1 10201353
18:00+8nw496432 0.1 10201437
21:00+4n11867 0.1 102211
9 may, sun
sun900:00+3sw22890 0.0 102324
03:00+2wsw33924 0.0 102448
06:00+2wsw33915 0.0 102536
09:00+8sw226948 0.0 1026304
12:00+13sw234736 0.0 10251534
15:00+15ssw3444100 0.0 10242002
18:00+15s34495 0.0 10241755
21:00+10sse46698 0.0 102473
10 may, mon
mon1000:00+8sse411718 0.0 1025193
03:00+7se410695 0.0 1025198
06:00+6se413705 0.0 1025264
09:00+12se613635 0.0 1025519
12:00+16sse8115326 0.0 10241046
15:00+19sse8104927 0.0 10231330
18:00+18se610595 0.0 10221097
21:00+13se613674 0.0 1023379
11 may, tue
tue1100:00+10se515745 0.0 1024396
03:00+10se615670 0.0 1023401
06:00+8se615740 0.0 1023385
09:00+13se714640 0.0 1022569
12:00+17se810510 0.0 10221012
15:00+19se79450 0.0 10201212
18:00+18se69550 0.0 10191092
21:00+13ese410790 0.0 1018184